Showing default

BRO-15, 60553

Orbit data source: Space-Track

BRO-15, 60553 is a payload satellite owned by Unseen Labs (FR) in SSO that was launched on Fri, 16 Aug 2024 UTC via an FALCON 9 launch vehicle from the Air Force Western Test Range (AFWTR). Payload-class satellites include a variety of spacecraft equipped with specific instruments for various scientific and technological missions. These include communications satellites like Starlink; space stations such as the ISS; scientific satellites like the Hubble; Earth observation satellites from companies like Planet Labs, Umbra, and HawkEye 360; GPS; miniature CubeSats for education and research; and military/defense satellites.

Loading next visibility...
Identifier
60553, 2024-149CP
Orbit
SSO
Country
Flag of FRFR
Related business
Manufacturer
GOMSpace
Mission
Operational Commercial Sigint
Bus & Motor
CUBESAT 8U, Unknown motor
Mass
15 kg wet, ~15 kg dry
Launch date (UTC)
2024-08-16 (1 year ago)
Launch vehicle
FALCON 9
Launch site
Air Force Western Test Range (AFWTR)
Object type
Payload
Rocket body
Debris
Shape & HBR
Box, 0.2 m
Radar Cross Section
0.100 m², Medium (>0.1 m² and < 1m²)

Expand to show TLE details & history
Last TLE update: 4 hours ago

TLE from 4 hours ago
0 BRO-15
1 60553U 24149CP  26035.20611230  .00001123  00000-0  10570-3 0  9993
2 60553  97.6922 113.0686 0008437 164.4331 195.7151 14.95804530 80124
Epoch: 2026-02-04T04:56Z
TLE epoch observation values (Epoch: 2026-02-04T04:56:48.102Z)
Latitude
-0.00006°
Longitude
-95.50784°
Altitude
588.578 km
Speed
7.563 km/s
True Right ascension
07h 32m 16s
True Declination
0° 00' 00"
Sunlit
Object was in full shadow at epoch
Visualization orbit readout
Latitude
Unknown
Longitude
Unknown
Altitude
Unknown
Speed
Unknown
Apparent Right ascension
Unknown
Apparent Declination
Unknown
Sunlit
N/A
Visualization observer readout
Local Sidereal Time
10:47:37
Azimuth
Unknown
Elevation
Unknown
Doppler factor
Unknown
Orbital elements
Apogee altitude
582.755 km
Perigee altitude
571.019 km
Semi-major axis
6,955.024 km
Eccentricity
0.00084
Inclination
97.6922°
RAAN
113.0686°
Arg. of periapsis
164.4331°
True anomaly
195.68894°
Mean anomaly
195.7151°
Eccentric anomaly
195.70202°
Mean motion
3.74193 °/min
Orbital period
96.21 mins
BSTAR
0.0001057
Loading maneuver chart data...
Computing Atmospheric mass density...
Loading historical data...
Loading historical data...
Loading historical data...
Loading historical data...
Loading historical data...
Loading historical data...
Loading historical data...

Documentation

Showing up to 5 results
|